Location: Sternwarte auf dem Internationalen Platz Vogelsang IP
(50.5721°N, 6.4398°E)
Time: 04:47:51
(UTC+01:00)

Transit 2A Rocket - Pass Details

Date: 18 December 2025
Orbit: 581 x 903 km, 66.7° (Epoch: 13 January)

Event Time Altitude Azimuth Distance (km) Brightness Sun altitude
Rises 18:08:51 0° 309° (NW) 3,517 8.9 -14.5°
Reaches altitude 10° 18:13:08 10° 281° (W) 2,534 8.6 -15.1°
Maximum altitude 18:15:14 12° 260° (W) 2,364 8.8 -15.5°
Drops below altitude 10° 18:17:17 10° 239° (WSW) 2,474 8.9 -15.8°
Sets 18:21:22 0° 209° (SSW) 3,331 9.0 -16.4°
